Theta_e
320 319 319 318 318 317 317 316 316 317 316 316 316 317 317 317 317 317 317 316 315 315 315 315 315 314 314 314 314 314 313 313 313 313 313 313 313 313 314 314 315 315 315 316 316 317 317 318 319 320 320 320 320 321 322 322 322 322 323 323 324 324 324 324 323 321 319 320 321 321 323 324 323 327 332 335 336 335 335 336 336 336 335 335 334
319 318 319 318 317 317 316 316 316 316 316 316 317 317 317 317 318 318 318 317 315 315 315 315 315 315 315 315 315 314 313 313 313 313 312 312 312 312 313 314 314 315 315 315 316 316 316 317 318 319 320 320 320 321 322 323 322 323 323 322 323 324 324 324 323 323 322 320 320 320 321 323 325 328 332 335 335 335 335 336 336 336 335 335 334
319 318 318 317 317 316 316 316 316 316 316 317 317 317 317 317 318 318 318 317 316 316 315 315 315 315 315 315 315 314 313 313 312 312 312 312 312 312 312 313 313 314 314 314 315 316 316 317 318 318 320 321 320 320 321 322 323 323 323 322 322 323 324 324 324 324 323 321 321 321 321 323 326 329 332 334 335 335 336 335 336 336 336 335 334
318 318 317 317 316 316 315 315 316 316 316 316 317 317 317 317 318 318 318 317 316 316 316 316 316 315 315 315 315 314 313 313 313 312 313 312 312 312 312 312 312 313 314 314 315 315 316 317 317 318 319 320 320 320 321 321 323 323 322 322 322 322 323 324 324 324 322 322 322 323 324 325 327 330 332 334 335 335 335 336 336 335 335 335 334
318 317 317 317 316 315 315 315 315 315 316 316 316 316 317 318 318 317 317 317 317 316 316 316 316 316 315 315 315 314 313 313 313 313 312 312 312 311 311 311 312 313 313 314 314 315 315 316 317 318 318 319 319 320 321 321 322 323 322 322 322 322 323 324 325 324 323 323 324 323 323 323 325 330 333 333 334 335 335 336 335 334 334 334 334
317 317 317 316 315 315 315 315 315 315 316 316 316 316 317 317 317 317 317 317 317 316 316 316 315 316 315 315 315 314 313 313 313 313 313 312 312 311 311 311 312 312 313 313 314 314 315 315 317 317 318 318 319 320 321 321 322 323 323 322 321 322 323 324 325 324 322 324 325 324 322 321 324 330 332 333 334 335 334 334 333 333 334 334 333
317 316 316 316 315 315 315 315 315 314 315 315 316 316 316 317 317 317 316 316 316 316 315 315 315 315 315 315 315 314 314 313 313 313 313 312 312 311 311 312 312 312 313 313 313 314 315 315 316 317 317 317 318 319 321 322 321 322 323 323 322 323 323 323 324 324 323 323 323 323 323 324 326 330 331 332 334 333 333 332 332 333 333 333 332
316 316 316 316 315 315 315 315 314 314 314 315 315 316 316 316 316 316 316 316 316 315 315 315 315 315 315 315 315 314 314 313 313 313 313 312 312 311 311 312 312 312 313 313 313 314 315 316 317 317 317 318 319 320 320 322 321 321 322 322 323 323 323 323 323 323 324 323 323 322 324 325 327 329 330 332 332 332 332 332 332 333 333 333 333
316 316 316 316 316 315 315 315 315 314 314 314 315 315 315 315 316 316 316 315 315 314 315 315 315 315 315 316 315 314 313 313 313 313 313 312 312 311 312 312 313 313 313 313 314 314 315 316 318 318 318 319 320 320 321 321 321 321 322 322 323 323 323 323 323 323 323 324 324 324 325 326 325 326 328 331 331 331 331 331 332 333 333 333 333
316 316 316 316 316 316 315 315 315 314 314 314 314 314 314 315 315 315 315 315 314 314 314 315 315 314 315 316 315 313 313 313 313 313 313 312 312 312 312 313 313 313 313 314 314 314 314 315 317 318 319 320 321 321 321 322 322 322 322 322 323 323 323 322 323 323 323 323 324 324 324 325 324 325 328 330 330 330 330 331 331 333 333 332 333
315 315 315 316 317 316 315 315 315 314 314 314 314 314 314 314 314 315 314 314 313 314 314 314 314 314 314 315 314 313 313 313 312 313 312 312 312 312 312 312 313 313 313 313 314 314 314 314 316 316 318 320 321 321 322 322 322 322 322 322 323 323 322 323 323 323 323 323 324 324 323 323 324 326 329 330 329 329 331 332 331 332 332 332 332
315 315 315 316 316 316 316 315 314 314 315 314 314 314 314 314 314 314 314 313 313 313 313 313 314 314 313 314 313 313 313 313 312 312 312 312 312 312 312 312 312 312 313 313 313 313 312 313 315 316 317 319 320 321 322 322 322 322 323 323 323 323 322 323 324 323 323 323 324 324 323 323 324 327 329 330 330 330 332 332 331 332 332 332 332
315 316 315 316 316 316 316 315 314 315 315 314 314 314 313 314 314 313 313 313 313 313 313 313 313 314 314 313 313 313 313 313 313 312 312 312 312 312 312 312 312 312 312 312 313 312 312 312 314 315 316 317 318 320 322 322 322 322 322 323 323 323 322 322 323 323 323 323 324 324 324 325 326 328 329 330 331 331 331 332 332 332 332 332 332
315 315 316 316 316 316 317 316 315 315 315 314 314 314 313 314 314 313 313 314 314 314 313 313 313 314 314 314 313 313 313 313 313 312 312 312 312 312 313 313 312 312 312 312 312 312 312 312 313 314 314 315 317 319 321 323 323 322 322 323 323 323 322 322 323 323 323 323 324 325 326 327 327 328 329 330 330 331 331 332 332 332 332 332 332
314 315 315 316 316 316 316 316 315 315 315 314 314 314 314 314 315 314 314 314 315 314 314 313 313 314 314 314 313 313 313 313 313 313 312 312 312 312 313 313 312 312 312 312 311 311 311 312 313 313 314 314 315 317 320 323 323 323 322 320 321 323 323 322 323 323 323 324 325 325 326 326 327 328 329 329 330 330 331 331 331 331 332 332 332
314 314 315 316 316 315 315 316 315 315 315 314 314 314 314 315 315 315 315 315 315 315 315 314 314 314 315 314 314 314 314 314 314 314 313 313 313 313 313 313 313 313 312 312 311 310 310 312 312 312 313 313 314 316 319 322 324 324 323 320 317 322 324 324 324 324 324 325 324 323 325 326 327 328 329 329 329 329 330 329 329 329 330 331 331
315 314 315 315 316 315 315 315 315 315 315 315 314 314 314 315 315 315 315 315 315 315 315 314 314 314 315 315 314 314 314 314 314 314 313 313 313 313 313 313 313 313 313 311 310 310 310 311 312 312 312 313 313 315 317 321 323 324 325 323 321 321 324 324 324 323 324 324 323 324 326 327 327 328 329 329 328 327 327 327 327 328 329 329 330
315 314 315 315 315 315 315 315 315 315 315 315 315 315 315 315 315 315 315 315 315 315 315 315 315 315 315 314 314 314 314 314 315 315 314 313 314 314 314 314 313 313 313 311 310 310 310 311 311 311 312 312 312 314 315 318 322 324 325 325 323 322 321 322 324 324 326 325 325 326 327 328 327 327 327 327 326 325 325 325 325 326 326 326 326
315 314 314 315 316 315 315 315 315 315 315 315 315 315 314 314 315 315 315 315 315 315 315 315 315 316 315 314 314 315 314 314 316 315 314 314 314 314 314 314 313 313 312 312 311 310 310 310 311 311 311 311 312 313 314 316 319 323 325 325 324 323 322 322 325 325 326 326 326 326 327 328 327 326 325 325 324 324 323 323 323 323 323 323 323
315 314 314 315 316 316 315 315 315 315 315 314 314 315 314 314 314 315 315 315 315 315 315 315 315 315 315 315 315 315 315 315 316 315 315 315 315 315 314 313 313 313 312 312 311 311 310 310 310 310 311 311 311 312 313 315 317 319 323 325 325 325 325 325 326 325 324 325 325 325 326 326 325 324 323 323 323 322 322 322 322 321 321 321 321
315 315 315 315 315 316 316 315 315 315 315 314 315 315 314 314 314 315 315 315 315 315 315 315 315 314 315 315 315 315 315 315 316 315 315 315 315 316 316 314 314 313 313 312 312 312 311 310 310 310 310 310 311 311 312 314 315 317 319 322 324 325 326 326 325 325 324 323 323 323 323 323 323 322 321 321 321 320 320 320 319 319 319 319 320
315 315 315 315 316 316 317 316 315 315 315 315 315 315 315 314 315 315 314 314 314 315 314 314 314 314 314 315 315 315 315 315 315 315 315 315 315 316 316 315 314 314 313 313 313 312 312 310 309 310 310 310 310 311 311 312 314 316 317 318 320 322 323 323 323 324 323 322 321 322 321 321 321 321 320 320 320 320 319 319 318 319 319 319 319
315 315 315 315 316 316 317 316 316 316 315 315 315 315 315 315 315 314 314 314 314 314 314 314 314 313 313 315 315 315 315 315 315 315 315 315 315 316 316 315 314 314 314 314 313 313 312 311 310 309 309 310 310 310 310 310 312 314 316 317 318 319 319 319 320 321 321 320 320 320 319 319 319 319 320 320 320 319 319 319 319 318 319 319 319
314 315 315 315 316 316 316 316 316 316 315 315 315 315 315 315 315 314 314 314 314 314 314 314 314 313 312 314 315 314 314 315 315 315 315 315 315 316 316 316 315 314 314 314 314 313 313 312 311 310 309 309 310 310 310 310 310 311 312 314 316 317 318 318 318 318 318 318 319 319 318 318 318 318 319 319 319 318 318 318 317 317 317 317 317
314 315 315 315 315 316 316 316 316 316 315 315 315 315 315 315 315 315 314 314 314 314 314 313 314 313 312 312 314 314 313 313 314 315 315 315 315 316 316 316 316 315 314 314 314 314 313 313 312 310 310 309 309 310 310 309 309 310 310 311 312 315 317 317 318 317 317 317 317 318 318 317 317 317 317 317 317 317 317 317 316 316 316 316 316
314 314 315 315 315 315 316 316 316 316 316 315 315 315 315 315 315 315 314 314 314 314 313 313 313 313 312 312 312 314 314 313 313 314 315 315 315 315 315 316 316 315 315 314 314 314 314 313 312 311 310 309 309 310 310 309 309 309 309 309 309 312 314 316 317 317 316 317 317 317 317 317 316 316 316 315 315 315 315 315 315 315 316 316 316
314 314 315 315 315 315 315 315 316 316 316 315 315 315 315 314 315 314 314 314 314 313 313 313 313 313 312 312 312 312 313 314 313 313 315 315 315 314 314 316 316 316 316 315 314 314 314 314 313 312 311 310 309 310 310 310 309 309 309 308 308 309 311 313 314 315 316 316 316 316 316 316 316 316 316 315 315 315 314 314 315 315 316 316 317
314 314 315 315 315 315 315 315 315 315 316 315 315 314 314 314 314 314 313 313 313 313 313 313 312 312 312 312 312 312 312 314 314 313 314 315 315 315 315 315 317 317 317 315 315 315 314 313 313 313 311 311 310 310 310 310 309 309 308 308 308 308 309 310 311 313 314 314 315 315 315 315 316 316 316 316 316 316 315 315 315 315 316 317 317
313 313 314 314 314 314 315 315 315 315 315 315 315 314 314 314 314 314 313 313 313 313 313 312 312 311 311 311 312 311 311 312 313 313 314 314 316 316 315 315 316 317 317 316 316 316 314 313 313 313 312 311 311 310 310 310 310 309 309 308 308 308 308 309 309 310 311 312 313 314 314 315 315 315 315 315 316 316 316 316 316 316 317 316 316
313 313 314 314 314 314 314 314 314 314 314 314 314 314 313 313 313 313 313 312 312 313 312 312 312 311 311 311 311 311 311 311 312 313 313 314 315 316 316 315 315 316 317 317 316 315 315 314 313 313 313 312 312 311 310 310 310 310 309 308 308 308 308 309 309 309 309 310 311 312 313 314 314 314 315 315 315 315 315 316 316 315 315 315 315
313 313 313 313 313 313 313 314 313 313 314 314 314 313 313 313 312 312 312 312 312 313 312 312 312 311 311 311 310 311 311 310 311 312 313 313 314 314 315 315 315 315 316 317 316 316 315 314 313 313 313 313 313 312 311 311 311 310 309 309 308 308 308 308 309 309 309 309 309 310 310 311 312 312 313 313 314 314 314 314 315 315 315 315 315
313 313 313 313 313 313 313 313 313 313 313 313 312 312 312 312 312 312 312 312 312 313 313 312 311 311 311 311 310 310 310 310 310 312 312 313 313 314 314 315 315 315 315 316 317 317 315 314 314 313 313 314 314 313 312 311 311 311 310 309 309 308 308 308 308 309 309 309 309 309 309 309 309 310 310 311 312 312 313 313 313 314 314 314 315
312 312 313 312 312 312 312 312 312 311 311 312 311 311 311 311 312 312 312 312 312 313 313 312 311 311 310 311 310 310 310 310 310 312 312 312 313 313 313 314 315 315 315 316 317 317 316 314 314 314 313 314 314 314 314 312 311 311 311 310 309 309 308 308 308 308 309 310 309 309 308 308 309 308 309 309 310 310 311 312 312 313 314 314 314
312 312 312 312 311 311 311 310 311 310 310 310 310 310 311 310 311 312 311 311 311 312 312 312 311 311 310 311 310 309 310 310 310 311 312 312 312 312 313 313 315 315 314 315 316 317 316 314 314 314 314 314 314 314 314 313 312 312 311 311 310 309 309 308 308 308 309 309 310 309 308 307 308 308 308 308 309 309 310 310 311 311 312 313 313
311 311 311 310 310 310 310 310 310 309 308 309 309 309 310 310 310 311 311 311 311 311 312 312 311 311 310 311 310 309 310 310 309 310 310 311 311 311 312 313 314 315 314 315 316 316 315 315 315 314 314 314 314 315 314 314 313 312 312 311 311 310 309 309 309 309 309 309 309 309 309 308 308 308 308 308 309 309 309 309 309 310 310 311 311
311 311 310 309 309 309 310 309 309 308 307 307 307 308 309 310 310 310 310 311 311 311 311 311 310 310 310 310 310 309 310 310 309 309 309 310 311 311 312 313 314 314 314 314 315 314 315 315 315 314 314 314 314 314 314 314 313 313 313 312 311 310 310 310 309 309 309 309 309 309 309 309 309 308 308 308 308 308 308 308 308 308 308 309 309
311 311 310 309 309 309 309 309 308 307 305 304 305 306 308 309 309 310 310 310 310 311 311 310 310 310 310 310 309 308 309 310 309 309 309 310 310 310 311 313 314 314 314 314 314 314 314 315 315 314 314 314 314 314 314 314 314 314 313 313 312 312 311 311 310 309 309 309 309 309 309 309 309 309 309 308 308 308 307 307 307 307 307 306 307
311 310 310 310 309 309 309 308 307 305 303 302 304 306 307 308 308 309 309 309 310 310 310 310 309 310 310 310 309 307 308 309 309 308 308 309 310 310 310 312 314 314 314 314 314 314 314 315 314 314 314 314 314 314 314 315 315 314 314 313 313 313 312 311 311 310 309 309 309 309 309 309 308 308 308 308 308 308 308 308 307 307 306 306 305
311 310 310 310 310 309 308 308 306 304 302 301 303 305 306 307 307 308 309 309 309 309 309 309 309 309 310 310 308 306 306 308 308 307 308 308 309 309 309 311 313 313 314 314 313 313 314 314 314 314 314 314 314 314 314 314 314 314 314 314 314 313 313 312 311 311 310 309 309 309 309 308 308 307 307 307 308 308 308 308 308 307 306 306 306
310 310 310 309 310 309 308 307 305 303 301 300 301 303 305 306 306 307 308 308 309 308 309 309 308 309 309 309 308 306 305 306 307 306 307 308 308 309 308 309 311 312 313 313 313 313 313 312 313 313 313 313 313 314 314 314 314 314 314 314 314 314 313 312 311 311 310 309 309 309 309 308 307 306 306 306 307 307 307 307 307 307 307 307 307
310 310 310 309 309 309 309 307 305 302 300 299 300 301 304 305 306 306 307 308 308 308 308 308 308 308 308 308 308 307 305 304 304 306 307 308 308 308 308 308 309 311 312 312 312 312 312 312 311 312 312 312 312 312 312 313 314 314 313 313 314 314 313 313 311 310 310 309 309 308 308 307 306 306 306 305 305 306 307 307 307 307 307 307 307
310 310 310 309 309 309 308 307 305 302 299 298 299 300 303 305 305 306 307 307 308 307 307 307 307 307 307 307 307 307 306 303 302 305 307 308 308 309 308 308 309 309 310 311 312 311 311 311 310 310 310 310 310 310 310 311 312 313 313 313 314 313 313 313 311 310 309 309 308 308 307 307 306 305 305 305 305 305 305 305 306 307 308 308 308
310 310 310 309 309 309 308 307 304 301 298 297 298 300 302 304 304 305 306 307 307 307 307 307 307 307 307 307 306 306 306 303 301 304 307 308 309 309 309 309 309 308 309 310 310 311 311 310 309 309 309 309 309 309 309 310 311 312 313 313 313 314 313 313 312 311 309 309 308 308 307 307 306 305 304 304 304 304 304 304 306 307 308 308 308
310 310 309 309 309 308 308 306 303 300 297 295 296 298 300 303 304 305 306 306 307 306 306 305 305 305 306 306 306 306 305 302 300 303 306 308 309 310 309 310 310 308 308 309 309 309 310 310 309 309 309 309 308 308 309 309 310 312 313 313 313 314 313 313 313 311 310 309 309 308 308 307 307 306 304 304 304 304 304 305 306 307 307 308 308
310 309 309 308 308 308 308 306 302 300 297 295 295 297 299 302 303 304 305 306 306 306 305 303 302 302 303 305 305 305 303 301 300 302 305 307 309 310 310 310 310 308 308 308 309 309 309 309 309 309 308 308 308 308 308 309 310 312 313 313 313 313 313 313 312 311 310 309 309 309 308 308 307 306 305 304 305 305 306 306 307 307 307 307 307
309 309 308 308 307 307 308 306 303 302 299 294 293 295 298 301 302 303 305 306 306 305 305 303 301 300 300 302 303 303 301 299 299 301 304 307 309 310 310 310 309 308 308 308 308 308 308 308 309 308 308 307 307 307 307 309 310 312 313 313 313 313 313 312 312 311 311 310 309 309 309 309 308 307 306 305 305 306 306 307 308 308 308 307 307
309 309 308 308 307 307 307 307 304 303 300 295 292 294 296 299 302 303 304 305 305 305 305 304 303 302 300 299 301 300 299 299 299 301 304 307 309 309 310 309 309 309 308 308 308 307 307 308 308 308 307 307 307 307 307 309 311 312 313 313 313 313 312 312 311 311 311 310 310 309 309 308 308 307 307 306 305 305 306 307 307 308 308 308 308
308 308 307 307 307 306 306 307 305 304 301 296 291 291 294 297 300 302 303 304 303 304 304 304 304 303 301 298 299 299 299 299 299 300 303 306 307 308 309 309 309 309 309 308 308 308 307 307 307 307 308 307 307 307 306 308 309 311 311 312 312 312 312 312 311 310 310 310 310 310 309 308 308 308 307 307 306 306 306 307 308 308 308 308 307
307 307 306 306 306 305 304 304 304 304 303 298 292 290 292 295 298 301 302 303 301 302 304 305 304 303 301 298 298 299 298 298 299 300 302 304 305 306 307 308 308 308 307 308 308 308 308 308 307 307 308 308 307 307 306 306 307 308 310 310 310 312 312 312 311 310 309 310 310 310 309 308 308 308 308 307 307 307 308 308 308 308 308 308 307
307 306 306 305 305 304 302 302 301 304 304 299 292 290 290 292 296 299 302 303 303 302 303 304 304 303 301 298 297 298 298 298 298 300 301 303 304 304 305 307 307 307 306 307 308 308 307 308 309 308 308 308 308 307 306 306 305 306 308 307 309 311 312 311 311 310 309 310 310 311 310 309 308 308 308 308 308 308 308 309 309 309 308 308 308
306 305 305 305 304 304 303 302 301 302 304 300 292 289 290 291 293 297 300 302 303 303 302 303 304 303 301 298 296 297 298 298 298 299 300 302 302 302 303 304 304 305 305 306 307 307 307 307 308 309 308 308 308 306 306 306 305 305 306 306 308 310 311 310 310 309 309 309 310 311 311 310 310 309 309 309 309 309 309 309 309 309 309 308 309
Wind_Speed
19 19 18 18 19 20 20 21 22 23 24 23 22 21 21 20 19 19 18 18 17 17 16 15 15 14 14 16 17 18 19 20 21 22 22 22 23 24 24 27 29 30 30 30 29 28 27 26 25 24 23 23 23 22 21 20 20 20 20 20 20 20 20 19 20 19 19 20 21 23 23 20 20 20 21 24 26 26 27 27 28 30 29 28 29
19 18 18 18 19 21 21 21 22 24 23 21 21 20 20 20 20 19 19 19 18 17 17 16 15 14 14 15 16 17 18 19 20 21 21 22 22 24 24 26 27 29 30 29 28 28 27 27 26 23 23 23 21 21 21 20 19 19 19 20 20 20 20 19 18 17 19 21 22 22 22 21 21 21 22 24 25 26 27 28 27 29 29 28 27
18 18 18 19 20 20 20 22 23 22 21 20 21 20 19 20 20 20 20 20 19 18 18 18 17 15 14 14 15 16 16 18 19 20 21 22 23 25 26 26 27 28 30 29 27 27 27 27 26 23 22 22 21 20 21 20 18 18 18 19 20 19 19 19 18 18 20 23 22 20 20 21 23 23 23 24 25 26 27 28 28 27 27 25 24
18 18 18 20 20 20 21 22 23 22 21 20 20 21 19 19 20 20 20 20 19 18 18 18 17 16 15 14 14 14 14 16 18 20 20 21 23 26 27 27 28 28 28 28 27 27 26 26 26 24 22 22 21 20 20 19 18 18 18 19 20 19 18 18 17 18 22 23 19 17 18 18 20 22 22 23 24 25 26 28 27 25 24 22 21
19 19 18 19 19 19 21 22 22 22 22 21 20 20 20 19 20 20 21 21 20 19 19 18 17 17 15 13 14 14 14 15 18 19 19 21 23 25 28 29 29 28 27 27 27 26 25 26 27 26 25 22 21 20 19 18 18 17 17 18 18 18 17 17 16 18 21 22 17 14 14 14 16 19 21 21 22 24 25 26 25 23 22 19 19
18 19 18 18 19 20 22 21 22 22 21 21 20 20 20 20 20 20 20 20 19 19 20 19 17 17 15 12 13 14 13 15 17 19 19 21 23 26 28 29 30 28 27 26 25 25 25 26 27 27 26 23 21 19 18 18 18 17 16 16 17 17 17 16 16 17 18 19 17 14 14 13 14 15 18 19 19 21 22 23 24 22 21 21 22
18 19 18 18 20 21 21 20 20 21 21 20 20 20 19 20 19 19 20 18 18 19 20 20 18 17 15 12 12 13 14 15 17 19 19 20 23 27 27 28 30 29 27 26 24 24 25 26 26 25 24 22 21 18 17 17 17 16 16 16 16 16 16 16 16 16 15 16 15 13 13 13 13 13 15 17 18 19 19 20 24 23 24 26 26
17 18 19 19 19 20 20 19 20 22 21 20 20 20 20 20 19 18 20 18 17 20 21 21 18 17 16 13 12 13 14 17 17 18 19 20 24 26 27 29 31 31 29 27 25 26 26 25 23 23 21 20 18 16 16 16 15 15 16 16 16 15 15 15 16 16 15 15 13 11 12 12 11 11 13 15 18 20 21 22 23 24 26 27 25
17 18 19 19 18 19 21 20 21 22 20 20 20 21 21 22 21 19 19 18 19 21 22 21 18 17 15 12 13 13 14 17 16 17 20 21 22 25 28 30 31 33 31 29 29 30 30 26 21 20 18 16 15 13 14 13 13 15 15 15 15 15 14 14 15 15 15 14 12 11 12 12 11 12 13 16 18 19 20 23 23 23 25 25 24
17 19 19 19 19 20 22 21 21 22 19 20 21 22 23 23 23 21 19 19 20 21 22 21 18 17 15 12 13 14 15 17 17 17 19 21 22 25 29 31 32 33 31 31 31 32 32 28 23 20 17 14 13 11 12 11 11 14 15 15 15 14 13 13 13 15 15 13 11 11 12 12 12 12 13 15 19 18 17 20 22 22 24 24 23
15 18 18 18 19 19 20 21 21 21 19 19 22 23 24 24 23 21 19 19 20 22 23 22 20 19 17 13 12 13 15 16 17 18 19 20 23 25 29 31 32 33 32 32 32 33 33 30 27 24 19 14 12 11 11 11 10 12 14 15 14 12 12 12 12 14 15 13 11 12 13 12 11 12 11 12 17 18 15 17 20 19 20 21 21
14 17 18 17 18 17 18 20 20 21 20 20 22 23 23 23 23 21 19 18 20 23 24 23 21 21 20 16 12 10 14 17 17 19 19 20 23 23 26 30 32 34 34 32 32 34 36 31 29 28 24 17 13 10 9 9 10 10 12 13 13 12 11 12 12 13 13 12 12 13 12 12 12 11 10 10 14 16 14 15 17 16 16 18 18
14 16 18 18 18 17 17 19 19 21 22 21 21 21 21 21 22 23 21 18 19 23 25 22 19 18 17 17 14 9 14 19 18 19 19 19 22 22 24 30 33 35 35 34 32 34 37 33 31 31 29 25 19 13 9 7 8 10 11 12 12 12 12 12 11 10 10 10 11 13 11 11 11 9 8 9 10 11 12 13 14 14 14 15 16
15 16 18 18 18 18 16 17 19 21 22 21 20 20 20 20 21 23 23 21 18 20 24 20 15 13 10 11 12 8 12 19 19 18 17 18 22 23 25 29 31 33 35 35 35 35 36 35 34 34 33 31 26 19 14 8 4 8 11 11 12 13 13 12 10 8 9 9 9 11 9 9 8 5 6 8 9 10 11 12 12 13 13 13 13
14 16 17 16 17 17 16 15 17 19 20 20 20 20 20 21 21 21 21 22 18 18 22 19 16 15 9 5 6 6 8 15 17 16 16 18 22 24 24 27 28 30 33 34 36 38 39 38 37 37 36 34 31 26 20 11 3 4 9 11 12 13 13 12 11 9 8 8 9 9 8 7 6 6 9 10 11 12 11 11 12 13 15 14 14
14 14 15 14 14 16 17 15 15 17 17 18 20 20 19 20 22 21 20 19 18 19 20 19 19 14 7 3 4 4 5 9 11 14 16 16 20 23 22 25 27 28 31 32 35 38 39 39 39 39 39 38 36 34 30 20 7 2 6 9 11 12 13 13 11 10 8 9 10 8 6 8 8 11 13 14 15 15 14 11 9 11 14 15 14
14 13 14 14 14 14 16 16 15 16 16 16 17 18 18 18 20 20 20 18 18 19 19 20 19 14 8 4 2 2 4 7 7 10 15 14 16 23 22 22 25 25 27 32 34 36 38 39 40 40 41 41 40 39 38 31 15 1 3 6 10 11 12 12 10 9 9 8 8 7 7 8 11 16 19 20 19 18 17 16 15 16 16 17 16
13 13 14 15 14 14 15 16 15 15 16 16 15 16 18 18 18 19 19 19 19 18 18 21 21 18 16 11 5 3 3 6 5 6 12 13 14 21 21 20 23 23 25 29 32 35 37 38 40 41 42 43 43 42 43 40 27 8 4 5 8 11 11 11 10 8 7 7 7 8 9 12 18 24 26 24 21 21 20 21 23 23 22 22 23
12 13 14 14 15 15 15 15 16 16 16 16 16 16 17 18 19 19 20 21 20 18 17 20 20 19 19 18 15 11 6 6 4 3 8 10 13 18 19 19 21 23 24 27 30 34 36 38 40 41 42 45 45 45 45 46 40 22 6 6 7 9 10 11 11 9 8 7 7 9 13 20 27 29 27 25 24 24 23 23 25 25 23 23 22
11 13 14 13 14 15 16 15 16 16 16 17 17 17 17 19 19 20 21 22 21 19 19 19 18 18 18 20 19 17 14 10 6 5 4 6 10 14 17 19 19 21 22 25 27 31 35 38 39 40 41 46 47 45 45 47 48 40 25 11 8 9 11 14 16 18 21 22 22 21 22 27 31 29 27 26 25 25 25 23 24 24 23 21 20
10 12 13 13 14 15 16 16 16 16 16 16 18 18 18 18 19 20 21 22 21 20 21 19 17 18 17 17 18 18 17 15 12 10 5 4 6 7 12 15 15 18 22 23 25 28 33 36 37 39 42 46 46 44 45 47 49 49 45 29 14 16 19 22 25 26 27 29 31 30 29 30 31 29 26 26 25 24 24 23 22 22 21 20 19
9 10 12 13 13 14 16 16 16 16 16 16 16 17 17 17 18 19 19 21 22 20 20 20 18 18 17 14 15 16 13 12 14 14 8 5 6 6 8 10 9 13 18 21 24 26 29 34 36 38 41 44 43 43 44 46 48 48 48 41 31 32 33 31 31 30 29 29 29 29 29 28 28 28 26 24 24 23 22 22 22 21 20 19 18
9 9 10 12 12 13 15 15 16 16 16 16 15 16 17 17 18 19 18 19 21 20 20 22 19 20 21 14 13 16 12 9 13 15 9 5 6 6 7 10 7 9 14 16 21 24 26 30 34 35 37 40 41 43 45 45 46 46 45 44 41 38 37 36 34 31 31 31 29 28 29 28 26 25 25 23 23 23 22 22 21 20 19 18 17
8 9 10 11 11 12 13 14 16 16 16 16 15 16 17 17 17 19 19 19 21 20 21 23 20 20 23 17 13 18 18 14 15 16 13 10 8 5 6 9 6 7 14 15 16 22 24 25 28 30 33 36 38 41 43 43 43 43 42 41 40 38 36 35 33 31 31 31 29 28 27 26 23 22 22 22 21 21 21 21 20 19 18 17 15
8 9 11 11 11 12 12 13 15 15 16 16 16 16 17 17 17 17 18 18 20 20 21 23 22 20 22 20 14 15 19 20 18 16 16 16 12 7 8 11 6 4 11 16 15 18 22 22 23 26 30 33 35 37 39 40 41 42 41 39 37 37 38 35 31 29 29 29 28 26 25 23 21 19 19 20 20 20 20 19 18 18 17 16 15
9 8 10 10 11 11 11 12 14 14 16 16 16 16 16 16 17 17 17 17 18 20 20 22 24 21 21 22 18 15 16 20 21 18 16 16 14 10 9 10 8 4 5 14 16 14 17 21 22 23 26 30 32 33 34 37 40 41 42 42 39 35 34 34 32 30 28 27 25 24 23 22 21 19 19 19 18 18 18 18 17 17 16 16 14
9 8 9 10 10 11 12 12 13 14 15 16 16 16 16 16 17 19 19 18 17 19 20 21 23 23 21 23 21 19 17 17 20 21 18 16 14 13 10 6 6 5 3 8 13 13 14 19 21 21 22 26 30 29 30 34 39 41 41 42 40 35 31 30 30 30 29 26 24 22 21 21 21 20 19 19 19 18 17 16 16 15 15 15 14
9 8 8 9 9 10 12 12 13 14 14 15 16 17 16 16 17 18 20 20 18 18 19 20 22 23 22 22 22 24 23 18 17 19 20 17 14 15 14 7 4 3 4 5 6 10 16 17 18 20 20 22 26 27 26 29 34 39 41 41 40 37 34 31 28 28 27 26 24 21 19 18 19 19 20 20 20 19 18 17 16 15 14 14 14
8 9 9 9 9 9 10 11 13 14 14 15 16 17 17 16 16 17 18 19 19 19 19 19 21 23 22 21 22 25 26 24 21 19 18 18 16 15 16 12 8 4 3 5 3 6 13 16 15 18 18 19 22 25 25 24 27 33 37 39 39 38 37 35 32 28 25 23 23 22 21 19 18 18 18 19 20 20 20 19 17 16 16 17 16
8 9 9 8 9 10 10 11 12 13 13 14 15 16 17 17 16 16 17 17 19 20 19 19 20 22 23 22 23 24 25 26 26 24 20 19 18 18 17 16 15 9 4 4 4 5 10 13 14 16 16 16 18 21 23 22 22 27 32 35 36 36 37 37 36 31 26 22 20 20 21 21 20 19 18 18 18 19 19 19 19 20 20 19 17
7 8 9 9 10 10 10 12 12 13 14 14 15 16 16 16 16 16 17 17 18 19 19 19 18 21 22 22 24 26 25 26 26 26 26 23 21 21 19 17 17 15 10 5 3 6 10 11 12 14 15 15 15 17 19 20 20 22 27 31 33 34 36 37 36 34 30 26 22 19 19 19 20 20 19 19 19 19 19 20 21 22 21 20 17
7 8 9 9 10 11 11 12 12 14 15 15 15 16 16 16 16 17 18 18 19 18 18 18 18 20 22 22 23 25 25 25 25 25 28 27 24 23 22 19 16 16 15 8 2 5 9 10 10 11 13 15 16 15 15 16 18 20 23 27 30 32 34 35 36 35 32 29 26 23 20 19 18 17 17 19 20 21 21 21 20 20 19 18 17
7 8 9 9 10 11 12 12 12 13 15 15 15 14 14 16 17 16 17 18 18 17 17 18 17 19 21 21 23 24 24 24 25 24 26 27 26 24 24 23 18 16 16 11 4 3 7 9 9 10 12 14 15 16 14 14 16 18 19 23 27 30 32 32 34 35 33 29 27 26 24 22 21 19 19 21 22 21 21 20 19 18 18 17 17
7 8 9 10 10 11 12 14 14 14 15 15 15 15 14 15 16 16 16 17 17 16 17 19 18 18 20 20 22 24 23 23 24 24 25 26 25 24 25 24 19 15 15 13 8 5 5 8 10 12 13 13 13 15 15 14 14 15 17 18 21 25 28 30 31 32 32 30 28 28 28 26 24 23 21 21 20 20 19 18 17 16 16 15 14
7 7 8 10 11 10 11 13 14 15 15 15 17 18 18 16 15 16 16 17 18 18 17 18 18 18 20 20 21 22 22 23 24 24 25 25 25 24 24 24 19 16 16 14 11 9 7 8 12 13 13 13 13 13 12 12 12 13 16 17 17 19 23 27 29 29 29 30 29 28 29 28 26 24 22 20 19 18 17 16 16 15 15 14 12
7 7 8 9 10 11 11 12 14 15 15 15 16 18 19 18 16 16 16 16 17 16 16 16 17 18 18 19 20 20 21 22 23 24 25 25 24 24 23 23 21 17 16 14 14 13 9 7 11 13 13 14 15 14 11 10 11 12 14 15 15 16 20 23 26 26 26 28 29 29 28 27 27 26 25 23 22 21 20 19 18 17 15 14 13
6 7 8 9 10 11 11 12 13 14 15 15 15 15 17 18 17 16 16 16 16 15 16 16 15 16 17 17 18 19 20 21 22 23 25 24 24 25 24 23 22 19 16 14 11 11 10 9 11 13 15 15 15 16 14 11 11 12 12 13 14 15 16 18 21 22 23 24 27 28 28 26 24 24 25 24 23 23 22 22 21 19 17 15 14
6 7 8 9 9 10 10 11 12 13 14 15 15 15 15 16 16 16 16 16 17 16 16 16 16 16 16 16 17 19 19 19 21 22 24 24 24 26 26 23 22 20 19 17 12 10 12 13 13 13 14 15 15 16 16 13 12 13 12 12 13 13 13 15 17 19 21 23 23 25 27 26 24 23 22 21 21 21 21 21 21 20 19 17 16
6 7 8 8 9 9 10 10 11 12 13 14 14 14 15 16 16 17 16 15 16 16 15 15 16 16 16 14 16 19 18 18 21 22 24 24 23 24 26 23 21 21 20 21 19 15 15 15 14 14 15 15 15 15 16 16 15 14 12 10 11 12 12 14 15 16 18 21 21 21 23 23 22 21 21 20 20 20 20 20 20 20 20 19 18
6 7 7 8 8 9 9 10 11 11 13 14 14 13 13 14 16 17 16 14 14 15 15 15 15 15 14 12 14 19 20 18 20 21 22 24 22 21 25 24 21 20 20 21 21 18 16 16 16 16 16 17 18 18 18 19 18 16 12 8 8 10 12 13 14 14 15 18 19 19 20 20 20 21 21 21 21 20 20 20 19 20 20 20 19
5 6 6 7 8 8 9 9 9 11 13 14 13 12 12 12 14 16 16 14 14 15 15 16 15 15 15 13 13 18 21 20 19 18 18 21 20 18 22 26 23 20 19 19 20 19 17 17 18 17 16 17 18 19 19 18 18 17 12 8 8 10 15 16 15 14 15 17 18 19 19 19 20 21 22 23 21 20 20 19 19 19 20 20 19
5 5 6 6 7 7 8 9 8 10 13 13 11 11 10 11 13 15 16 14 14 15 15 16 16 16 16 15 14 17 21 21 20 18 15 18 19 15 17 23 25 23 20 19 18 19 17 17 18 17 14 14 17 17 17 17 17 18 15 10 8 9 13 15 14 14 16 18 20 20 20 20 22 22 22 22 21 20 19 19 18 18 19 19 18
4 5 6 6 6 7 7 8 8 10 12 12 10 9 8 8 10 13 15 13 13 14 15 16 16 16 17 16 15 17 20 22 21 19 16 17 17 13 12 18 23 24 23 21 19 19 18 16 16 16 13 13 16 16 16 16 18 19 16 10 8 7 9 10 9 10 13 18 21 20 19 20 24 25 24 22 21 21 20 18 16 17 17 16 15
5 5 5 6 6 6 6 7 7 9 12 12 11 9 7 7 8 11 12 11 11 13 14 14 15 15 16 17 17 16 17 21 21 18 17 18 15 11 10 13 17 20 22 21 20 19 17 15 14 14 13 13 14 16 16 16 17 18 14 9 9 10 12 11 10 9 10 14 18 18 16 16 20 25 25 24 22 21 20 19 18 18 18 17 16
5 5 5 5 5 5 6 5 5 8 13 13 11 8 6 6 7 8 9 9 10 10 11 13 15 16 16 16 16 15 16 20 21 18 18 19 16 12 9 8 12 17 19 19 18 17 16 14 13 14 14 13 14 17 16 14 16 16 12 10 10 12 14 13 13 12 10 12 16 17 15 14 16 20 22 23 24 25 23 22 22 21 20 19 19
5 5 5 5 5 5 5 5 3 7 13 14 12 9 5 5 7 8 8 7 8 8 8 10 14 18 18 15 14 15 16 19 20 18 18 19 17 15 13 8 10 15 18 17 16 15 13 13 12 13 15 16 17 20 18 14 15 14 12 11 11 13 16 16 15 15 12 11 13 14 13 13 14 16 17 19 22 26 26 26 26 24 23 23 22
5 5 5 5 5 4 5 4 3 7 12 14 13 9 6 5 7 10 9 6 7 7 6 7 11 16 18 16 14 14 16 19 19 17 17 18 18 16 15 12 11 14 16 17 17 14 11 10 10 12 17 20 22 23 20 15 15 13 11 12 11 12 16 17 17 17 15 12 11 11 11 13 13 14 15 15 17 21 23 25 26 26 26 27 27
5 5 5 4 4 4 4 5 4 6 10 14 14 10 7 5 6 9 11 8 6 7 5 5 8 13 16 16 15 14 17 19 18 16 14 15 17 17 16 14 13 14 15 16 16 16 13 9 6 9 17 21 23 25 22 17 16 13 12 18 16 12 15 16 14 15 16 14 13 12 12 12 12 13 13 13 14 17 19 21 22 23 24 25 27
5 5 5 4 4 5 4 4 4 5 9 13 14 12 8 6 6 10 12 9 8 9 5 3 6 11 15 16 15 15 17 18 18 16 13 13 15 17 16 14 13 14 16 15 14 16 16 11 5 5 13 19 21 24 25 22 19 17 17 21 20 12 13 12 10 12 16 16 13 11 11 12 13 13 13 12 13 15 16 17 18 19 21 21 23
6 5 5 5 5 5 4 3 4 5 8 12 13 12 10 7 5 9 13 11 10 11 8 3 5 9 13 16 16 15 17 17 17 17 15 14 16 17 16 15 13 14 16 15 13 14 16 13 6 4 10 15 18 23 27 25 23 21 20 20 19 15 14 11 8 10 15 19 15 9 9 10 11 12 12 11 11 14 15 15 15 17 19 19 19
6 5 5 5 5 5 4 3 4 4 6 10 12 11 11 8 5 6 10 10 9 11 11 7 7 9 12 16 16 15 16 17 17 17 17 16 17 17 16 15 15 16 16 15 14 15 17 15 12 10 12 15 18 23 27 26 25 23 20 18 18 17 15 14 13 9 8 14 15 9 7 6 7 8 8 5 5 9 12 14 15 17 18 19 19
Wind_Direction
8 4 2 6 12 9 8 7 4 9 10 4 0 356 352 348 346 346 344 344 345 348 351 350 346 347 351 350 352 354 356 0 359 355 351 344 339 334 330 327 326 326 324 322 320 318 313 310 309 305 300 294 286 281 277 275 271 269 267 265 263 261 262 263 262 261 257 255 257 261 264 264 259 254 248 239 233 233 230 228 226 223 223 223 222
10 6 1 9 15 11 9 9 10 10 7 2 358 354 350 349 348 346 344 343 345 348 350 348 344 344 347 349 353 356 2 4 358 353 348 342 338 334 330 328 327 325 323 321 319 318 314 311 309 307 303 297 289 283 277 272 269 266 263 263 262 261 263 264 264 264 259 255 256 260 263 261 256 251 248 240 233 231 229 228 227 224 223 222 220
13 7 3 15 17 11 11 13 14 11 6 0 356 354 353 352 351 346 342 342 345 348 349 346 343 342 346 354 355 357 6 3 358 353 347 342 339 335 332 331 329 325 324 323 320 317 315 312 309 308 305 300 294 286 277 269 265 263 261 259 259 261 263 264 264 262 259 256 255 258 258 257 256 251 247 242 235 232 229 228 226 223 221 219 215
14 9 8 19 18 12 14 15 15 11 6 1 357 356 355 354 353 348 344 344 346 348 347 344 346 346 349 357 353 359 5 356 356 353 346 345 342 339 337 334 331 327 325 324 321 317 315 313 310 309 308 304 297 290 281 270 262 259 258 255 256 259 260 263 264 259 259 256 250 251 253 253 255 250 247 244 237 232 229 227 226 222 218 215 210
17 13 13 19 18 17 17 17 17 10 5 2 360 359 357 358 357 352 350 348 348 349 348 347 352 349 349 357 352 359 2 351 353 350 348 350 344 343 342 338 336 332 327 322 319 317 315 314 313 311 310 306 300 293 286 274 261 256 255 253 253 255 256 259 259 256 258 255 244 243 251 257 259 250 246 244 236 233 232 227 223 216 211 211 210
20 15 15 19 19 20 20 19 17 10 5 4 3 3 2 0 358 355 352 349 349 350 350 351 353 349 348 356 353 354 357 351 352 350 350 351 344 343 343 343 341 336 331 326 319 318 318 316 313 311 309 308 304 295 287 275 260 252 251 250 250 251 252 254 254 252 256 255 245 241 251 262 261 251 245 242 237 232 229 223 217 211 205 209 212
22 18 16 21 21 19 17 17 19 13 8 8 6 7 5 0 359 356 353 354 353 352 356 354 354 358 357 0 0 356 358 354 352 352 352 351 347 346 346 346 345 342 340 336 328 323 322 319 315 311 308 306 303 296 289 278 262 251 248 249 249 248 250 251 246 244 248 251 247 243 252 262 259 252 244 238 235 226 219 218 215 207 203 209 212
23 21 19 24 23 16 12 16 23 18 12 14 10 10 6 360 358 357 358 359 356 359 2 356 355 6 5 4 6 6 4 358 353 354 356 353 350 350 351 350 352 353 354 350 343 338 333 328 321 315 310 306 303 299 292 281 266 252 246 245 247 249 250 245 236 233 239 247 249 247 253 259 255 250 241 231 230 224 217 218 211 202 205 211 211
23 26 25 24 21 16 14 16 22 18 17 20 16 14 10 2 1 1 5 5 2 6 4 357 358 3 4 7 12 14 8 1 357 355 358 358 354 355 356 356 358 0 359 356 354 351 346 342 335 325 316 311 307 299 291 284 270 256 246 242 243 247 249 241 232 228 233 243 249 251 254 254 248 247 242 232 229 224 218 214 205 202 210 212 212
25 29 28 22 17 20 18 16 19 16 15 25 24 17 13 8 5 4 11 13 10 11 6 359 1 2 4 9 15 19 13 6 6 2 2 2 359 360 1 2 4 2 360 0 360 358 355 356 356 345 331 321 315 304 291 285 275 258 245 239 238 242 246 240 231 226 230 237 241 246 251 254 252 249 248 239 229 220 211 208 204 206 211 213 215
28 32 29 21 17 22 20 16 17 11 11 28 29 20 17 15 7 2 13 20 17 17 10 3 4 5 9 17 24 26 20 14 14 11 8 6 3 2 5 7 7 4 4 4 4 4 2 3 6 1 353 342 331 319 296 282 274 258 243 235 233 236 239 234 229 226 227 233 237 241 248 256 260 254 248 235 220 210 200 203 207 209 212 215 216
30 37 31 23 16 20 22 19 17 8 10 28 32 24 19 17 8 1 10 21 22 20 12 6 6 3 7 21 33 34 26 21 16 14 13 10 7 6 9 11 10 9 8 7 8 8 6 6 7 8 9 6 353 340 312 282 267 253 242 233 228 229 230 227 226 223 221 230 238 241 250 261 267 262 244 219 209 206 199 200 206 208 208 210 211
30 40 35 26 17 18 23 24 16 6 12 25 29 27 21 18 15 7 7 15 21 21 11 6 8 1 1 9 12 30 34 22 13 13 13 10 11 9 11 14 12 12 10 7 9 8 6 7 9 12 14 15 11 4 349 306 261 243 237 231 222 219 223 227 223 217 218 226 238 245 257 267 269 259 225 199 193 200 200 196 200 204 202 205 206
29 37 35 27 18 15 19 26 20 11 16 20 21 26 23 19 19 12 7 5 12 19 12 7 7 357 354 358 354 7 25 14 5 7 10 9 12 10 10 14 13 13 12 8 9 8 6 10 14 14 16 18 18 17 10 347 272 234 230 224 218 213 214 222 222 217 221 229 242 249 251 256 264 244 194 184 179 183 192 194 196 197 198 203 202
26 33 33 26 21 15 12 23 25 19 20 17 13 18 20 17 13 9 7 1 360 10 10 10 10 359 353 355 348 341 359 3 353 352 4 8 11 11 10 14 15 14 13 10 12 10 7 13 18 17 18 19 20 23 22 11 344 230 223 216 210 209 207 211 217 218 221 230 238 243 238 235 238 201 179 173 165 162 167 181 190 194 194 195 193
21 32 34 26 24 20 14 19 27 26 23 17 12 10 13 13 9 4 5 360 352 357 3 9 13 8 360 335 327 336 350 353 338 339 356 5 9 9 7 10 13 15 16 15 18 15 10 13 18 17 20 22 22 26 29 26 20 212 209 206 201 201 203 206 210 213 216 227 230 231 230 222 205 181 166 147 137 136 136 144 157 170 180 183 186
15 29 37 26 22 25 22 19 21 27 25 19 12 7 8 10 7 2 1 358 349 349 356 1 6 12 16 4 324 352 349 337 329 334 347 354 4 7 6 8 10 14 18 19 21 19 13 13 17 18 21 23 24 26 30 33 32 51 170 189 197 192 194 198 202 207 212 221 223 213 208 199 172 152 143 134 128 123 117 113 115 122 132 140 144
13 24 37 30 21 25 28 21 16 20 21 16 10 9 9 7 5 2 1 0 353 350 354 357 0 4 11 17 358 331 307 330 343 331 337 346 358 5 9 11 12 17 21 22 21 19 17 16 18 19 22 24 25 27 30 34 37 48 146 159 184 190 185 182 185 193 200 210 208 192 180 164 149 139 132 130 123 114 111 110 110 110 111 116 121
14 20 34 31 20 23 29 24 17 15 15 12 6 10 12 8 7 7 6 5 359 353 354 357 360 359 5 10 357 346 345 343 354 331 329 342 352 1 11 13 15 20 21 22 22 20 18 19 20 20 23 24 26 29 31 35 41 48 83 141 159 171 173 167 158 140 121 133 154 157 157 149 140 131 124 120 115 112 113 110 108 108 108 110 114
16 16 28 31 20 20 25 25 20 13 13 11 6 10 15 11 10 11 11 8 4 2 360 359 360 357 1 5 357 353 355 347 351 358 327 327 343 355 5 8 15 21 23 24 24 22 21 22 22 21 24 26 27 29 32 37 41 42 49 78 134 142 143 143 126 110 101 98 102 112 126 129 123 118 116 114 111 111 113 109 109 111 112 114 116
23 15 20 28 23 18 18 23 21 13 13 14 10 11 14 14 13 13 13 9 8 10 5 0 3 2 360 1 359 357 355 350 357 5 349 329 340 344 355 359 8 19 24 26 26 26 25 25 26 25 27 28 27 28 33 39 42 42 47 58 89 111 113 118 111 105 101 96 95 100 105 108 108 109 111 112 111 111 111 110 112 112 113 116 117
26 19 15 22 24 18 15 18 18 12 12 17 15 11 9 13 15 12 11 11 9 10 6 2 7 7 0 2 9 5 357 353 357 359 356 349 341 335 350 355 357 8 17 25 28 29 29 29 30 29 29 29 27 28 34 40 44 47 49 51 64 85 93 96 97 99 99 95 95 96 95 96 100 104 107 110 111 110 109 109 109 109 109 112 113
20 22 14 19 24 18 14 13 13 11 10 15 16 11 7 12 15 8 6 12 10 6 5 3 8 12 6 9 23 15 5 356 350 351 355 352 342 333 346 359 358 353 6 22 28 31 33 33 34 33 30 30 29 31 34 39 43 48 51 49 53 67 80 83 82 85 91 91 90 90 90 89 91 96 101 104 105 106 107 108 107 108 109 110 111
14 19 10 13 20 15 12 10 10 10 8 10 13 12 10 12 14 9 6 11 8 5 4 2 6 14 11 10 21 18 13 8 355 353 355 351 350 338 335 353 355 345 5 21 26 30 34 35 37 36 33 32 34 36 38 39 43 47 50 51 51 55 65 74 75 76 82 84 83 83 85 88 91 96 100 103 104 107 108 107 108 110 111 110 111
16 20 4 3 11 6 6 9 9 8 5 6 9 10 12 11 8 8 9 11 9 5 4 2 3 10 12 9 11 15 15 14 9 1 359 356 352 345 338 346 345 330 7 22 27 30 34 36 39 38 37 36 36 40 41 41 44 47 48 49 50 53 58 64 69 73 77 78 79 82 86 90 94 98 101 103 104 105 106 107 109 110 109 110 110
14 17 355 355 6 358 357 6 5 4 2 2 6 7 9 9 6 5 8 12 13 9 6 4 2 5 11 10 7 7 8 13 15 10 6 4 359 353 343 342 347 340 7 22 27 30 31 33 37 39 40 39 37 40 42 42 45 48 49 48 48 53 59 61 61 65 72 75 76 79 84 90 93 93 96 101 103 103 104 105 106 107 107 109 110
3 10 352 349 360 354 352 0 1 0 0 359 1 3 5 9 9 8 7 8 12 12 9 6 3 3 10 12 10 6 1 5 15 17 13 11 9 4 352 334 345 357 2 19 26 29 29 31 36 40 43 43 41 40 41 44 47 48 50 51 50 52 58 62 60 60 66 72 74 76 78 83 88 90 91 96 100 103 106 110 109 107 107 109 108
356 3 354 347 353 351 350 356 357 356 358 359 359 1 4 7 9 8 6 5 8 11 11 10 5 3 6 14 14 9 4 1 6 15 15 13 15 11 2 345 319 348 6 8 17 26 28 30 33 37 44 47 45 43 43 44 46 49 50 51 53 52 53 58 62 62 64 65 69 74 77 78 81 85 87 88 90 92 97 106 113 114 110 106 103
0 359 351 349 353 348 348 354 356 354 357 1 359 359 3 5 7 6 3 5 9 9 10 10 9 5 5 14 17 10 7 4 360 4 11 13 15 12 10 3 340 329 8 13 8 11 23 31 32 34 41 47 47 47 49 47 46 50 52 52 53 53 52 54 57 61 65 67 67 68 71 78 82 84 84 85 85 84 85 92 105 115 110 101 98
7 359 351 357 358 350 352 355 356 355 358 3 1 357 360 2 5 4 357 3 11 9 8 10 11 10 7 13 17 11 8 8 3 2 4 12 15 8 9 12 5 360 348 360 28 10 13 29 37 38 39 46 51 51 55 56 51 52 54 54 55 55 54 53 53 56 61 67 70 67 65 70 78 83 84 85 85 84 85 88 97 106 106 102 98
2 358 358 3 358 353 360 358 357 2 2 5 3 358 358 359 2 4 357 2 12 9 7 9 12 13 11 14 17 12 9 8 6 4 3 6 13 10 7 14 19 16 3 354 37 19 12 27 38 41 41 47 54 55 61 64 59 57 58 59 58 58 58 55 53 53 57 62 66 69 68 66 69 75 79 83 84 84 88 92 99 104 105 104 102
358 358 6 8 358 357 3 0 2 6 2 5 6 360 359 359 1 5 360 2 11 9 6 8 14 19 16 16 18 14 12 10 5 4 4 2 6 11 8 9 18 21 15 16 35 11 15 25 33 35 36 45 51 54 64 69 66 63 62 62 61 60 60 59 55 52 54 60 63 65 70 72 72 75 81 86 87 89 92 94 98 100 102 104 102
7 5 1 4 5 3 1 0 9 10 3 5 4 359 3 3 2 5 3 4 8 7 6 8 14 23 22 19 19 15 14 14 8 5 4 0 2 9 7 3 11 20 17 13 360 1 21 20 24 29 28 36 46 50 60 70 70 69 65 62 62 62 62 61 58 54 53 59 65 65 68 75 80 84 89 91 91 91 91 90 91 93 96 99 96
16 13 2 1 10 13 3 5 16 17 9 7 1 359 9 7 2 5 5 5 4 5 8 8 11 24 28 25 21 17 15 15 14 9 4 1 2 6 4 360 5 16 16 11 1 2 26 21 20 27 28 33 41 44 52 62 70 75 72 67 64 65 65 63 60 57 55 58 65 66 66 71 79 84 85 85 84 81 80 80 81 84 88 90 87
17 19 14 6 10 19 14 14 22 21 15 10 1 2 9 9 5 6 7 6 4 7 10 9 13 24 31 30 23 18 16 14 14 13 8 5 5 4 360 357 2 12 15 20 23 14 12 25 29 31 35 42 42 40 48 58 64 76 81 77 71 69 69 65 62 60 57 58 63 66 66 68 74 80 82 80 77 75 73 73 74 75 76 79 78
22 18 24 18 12 20 25 24 26 25 19 10 2 4 11 11 8 6 7 7 5 8 9 9 20 29 31 31 25 18 15 13 11 11 10 8 7 4 359 358 4 11 10 21 39 33 16 29 38 33 37 44 40 39 49 56 56 71 86 85 79 76 73 68 66 63 59 58 61 65 67 68 71 76 80 80 76 74 73 71 71 72 71 71 73
27 21 28 27 18 24 30 29 30 29 22 14 7 9 15 17 12 5 6 7 5 9 9 9 22 33 33 32 26 19 16 11 7 7 7 8 9 7 3 1 5 12 10 13 36 45 34 40 42 33 39 50 45 40 46 50 52 63 79 89 87 82 76 71 70 68 64 61 60 60 61 64 69 73 76 78 76 74 73 70 68 67 67 68 69
31 28 31 27 23 30 34 34 36 32 24 20 18 17 20 22 18 11 8 7 7 9 11 12 17 26 34 35 26 21 19 11 6 5 4 5 8 9 8 5 6 12 14 9 18 44 46 45 45 38 43 51 46 39 39 45 52 51 56 77 90 90 86 83 80 74 69 67 63 58 55 56 61 67 70 73 72 71 71 71 69 65 62 63 64
33 31 33 27 27 40 42 41 43 34 24 24 24 21 21 21 19 16 10 8 11 11 10 14 17 20 29 35 28 24 23 15 8 7 4 2 5 9 11 10 10 13 15 11 15 34 49 46 40 37 40 41 37 33 33 39 45 38 35 57 81 90 93 91 88 81 72 70 67 61 56 52 54 59 63 65 66 64 65 68 70 67 65 64 64
39 33 34 28 30 43 49 50 47 34 26 26 24 20 18 18 18 17 11 6 10 12 9 12 17 18 22 32 33 26 24 19 10 7 7 4 4 10 15 17 17 15 17 19 18 25 38 41 32 29 35 33 27 23 25 32 32 21 22 48 69 86 95 89 85 85 79 76 71 64 59 55 52 54 58 60 61 61 64 67 70 70 69 67 67
52 39 37 35 36 39 46 56 51 32 26 27 24 19 16 17 16 15 13 8 9 14 12 12 16 16 15 25 31 20 16 15 10 7 11 11 6 10 21 24 24 20 19 22 22 21 29 38 30 22 25 26 21 16 14 20 19 11 21 50 57 78 91 84 78 82 85 84 78 68 61 58 55 53 54 56 56 58 62 64 68 70 69 68 68
63 51 44 42 43 39 42 56 53 31 25 24 21 19 19 19 15 15 16 13 13 16 14 13 16 12 9 14 20 12 6 5 7 10 17 18 10 11 28 32 30 28 24 22 24 23 30 41 34 21 20 19 16 13 5 4 4 5 17 35 40 70 94 89 80 80 85 88 83 72 65 61 60 57 54 53 54 54 55 57 62 68 70 70 70
76 64 55 49 48 43 43 58 54 29 21 21 17 18 24 20 14 18 19 14 16 21 19 17 16 11 8 10 14 13 4 358 1 8 17 21 16 13 30 37 34 33 31 27 26 27 34 44 38 26 24 18 11 9 2 356 356 1 12 27 31 53 84 92 87 81 82 87 87 81 73 65 61 60 56 53 53 53 52 54 61 67 69 70 70
90 79 67 57 55 46 44 63 59 25 16 17 14 13 24 25 23 24 18 11 18 28 29 26 20 15 14 14 15 15 6 356 357 5 12 18 22 15 18 36 38 36 37 36 33 35 38 42 40 32 29 23 15 9 2 355 352 356 12 35 45 58 74 82 89 92 87 86 88 86 80 68 62 60 58 55 57 58 56 56 61 65 65 64 65
102 92 81 67 60 49 45 67 63 18 11 11 10 10 17 23 25 19 9 10 24 34 39 35 28 23 21 19 18 14 5 358 359 5 8 13 23 20 10 35 46 39 43 45 42 45 45 43 44 39 32 28 22 15 9 2 353 354 12 39 52 72 83 87 94 98 95 89 88 88 84 72 63 61 58 56 59 63 63 61 62 63 62 60 61
119 107 97 83 70 52 46 60 46 8 9 7 4 8 7 359 3 359 357 15 30 33 40 41 35 30 25 23 22 15 8 6 5 5 7 15 26 23 13 31 49 40 43 47 44 48 49 45 48 45 40 41 36 26 21 19 12 8 21 43 60 84 89 89 92 90 86 87 86 86 86 76 66 65 62 58 60 64 65 65 64 63 61 59 58
128 118 108 96 83 63 50 53 26 1 5 3 1 6 3 348 356 1 2 19 35 34 42 45 36 32 26 22 23 20 15 14 12 7 8 18 27 21 13 25 40 36 37 40 38 39 41 44 53 52 47 47 43 34 28 32 37 33 34 49 71 102 98 87 82 75 70 75 80 83 86 79 72 72 67 61 61 63 63 63 62 61 59 58 57
133 129 120 106 93 79 61 56 36 0 356 358 360 5 6 354 357 8 12 20 29 28 46 57 34 30 29 22 21 25 22 18 17 13 9 19 23 17 13 23 34 35 31 28 24 21 19 27 53 58 50 47 44 36 29 36 49 49 48 51 59 91 99 84 73 64 57 63 77 82 84 83 81 79 73 66 64 62 60 60 59 56 54 55 56
142 139 131 121 106 92 80 68 48 359 345 353 359 3 9 5 1 12 19 28 29 20 31 80 39 32 35 26 21 26 26 22 22 20 16 22 23 17 18 25 31 32 27 23 18 11 7 12 29 62 55 50 45 35 28 32 43 50 51 42 35 55 88 87 76 64 53 51 64 80 87 92 91 86 82 75 64 59 57 54 52 50 47 49 53
154 155 145 134 119 102 92 78 59 13 342 350 0 5 10 11 5 15 22 28 26 16 17 62 67 48 40 28 21 29 30 26 27 27 29 35 31 21 22 26 24 20 17 20 20 7 3 13 30 77 70 60 50 38 30 29 36 45 47 36 27 43 74 84 80 70 52 41 43 69 99 106 106 97 91 83 64 56 57 53 50 52 50 47 50
169 173 160 143 132 114 102 85 67 42 348 348 1 8 11 14 15 23 27 28 26 17 15 31 62 58 39 22 19 31 36 32 32 33 36 42 37 25 22 22 14 6 6 13 17 8 6 23 50 73 78 74 60 43 34 31 35 42 45 42 40 46 61 68 64 62 47 28 29 55 91 101 122 123 112 98 67 59 65 64 60 59 56 50 46